Flag for Zimbabwe Weather past 2 weeks in Harare, Zimbabwe

Now
66 °F

Clear.


Feels Like: 66 °F
Forecast: 61 / 75 °F
Wind: 12 mph from East

Location: Harare Kutsaga Airport

Current Time: Mar 28, 2015 at 4:42:18 AM

Latest Report: Mar 28, 2015 at 4:00 AM


Visibility: 10 mi

Pressure: 30.15 "Hg

Humidity: 100%

Dew point: 66 °F

Location of HarareLocation

Historic Weather in Harare — Graph

°F

Harare temperature yesterday

Maximum temperature yesterday: 84 °F (at 1:00 PM)
Minimum temperature yesterday: 63 °F (at 6:00 AM)
Average temperature yesterday: 73 °F

Past Weeks' High & Low Weather Summary

 TemperatureHumidityPressure
High84 °F (Mar 17, 1:00 PM)100% (Mar 13, 2:00 AM)30.30 "Hg (Mar 13, 2:00 AM)
Low54 °F (Mar 15, 6:00 AM)32% (Mar 15, 2:00 PM)29.92 "Hg (Mar 20, 12:00 AM)
Average71 °F69%30.20 "Hg
* Reported Mar 13 2:00 AM — Mar 28 2:00 AM, Harare, Weather by CustomWeather, © 2015

Note: Actual official high and low records may vary slightly from our data, if they occured in-between our weather recording intervals... More about our weather records

Advertising

Harare weather history for previous 24 hours

 ConditionsComfort  
Time TempWeatherWind HumidityBarometerVisibility
2:00 AM
Sat, Mar 28
68 °FClear.14 mph83%30.15 "Hg10 mi
12:00 AM70 °FClear.8 mph73%30.18 "Hg10 mi
10:00 PM
Fri, Mar 27
70 °FClear.8 mph73%30.18 "Hg10 mi
9:00 PM72 °FClear.8 mph69%30.18 "Hg10 mi
8:00 PM72 °FPassing clouds.7 mph69%30.15 "HgN/A
7:00 PM72 °FPassing clouds.3 mph69%30.12 "HgN/A
6:00 PM77 °FPassing clouds.5 mph54%30.12 "HgN/A
5:00 PM81 °FPassing clouds.5 mph51%30.12 "HgN/A
4:00 PM84 °FScattered clouds.12 mph37%30.09 "HgN/A
3:00 PM84 °FScattered clouds.2 mph40%30.12 "HgN/A
2:00 PMN/AScattered clouds.7 mphN/A30.15 "HgN/A
1:00 PM84 °FScattered clouds.5 mph45%30.15 "HgN/A
12:00 PM81 °FScattered clouds.7 mph48%30.18 "HgN/A
11:00 AM81 °FScattered clouds.9 mph54%30.21 "HgN/A
10:00 AM77 °FPassing clouds.8 mph65%30.24 "HgN/A
9:00 AM73 °FPassing clouds.12 mph74%30.27 "HgN/A
8:00 AM70 °FScattered clouds.13 mph83%30.24 "HgN/A
7:00 AM66 °FScattered clouds.8 mph100%30.21 "HgN/A
6:00 AM63 °FSunny.5 mph100%30.21 "Hg10 mi
5:00 AM64 °FClear.8 mph100%30.18 "Hg10 mi
4:00 AM64 °FClear.9 mph94%30.18 "Hg10 mi
Weather by CustomWeather, © 2015

See weather overviewHow to use our weather pages